Flag for USA

Past Weather in Augusta, Maine, USA — Yesterday and Last 2 Weeks

Now
60 °F

Fog.


Feels Like: 60 °F
Forecast: 76 / 61 °F
Wind: 5 mph from South

Location: Augusta State Airport

Current Time: Jul 4, 2020 at 10:04:42 pm

Latest Report: Jul 4, 2020 at 9:36 pm


Visibility: 1 mi

Pressure: 29.95 "Hg

Humidity: 100%

Dew Point: 60 °F

Location of AugustaLocation

Past Weather in Augusta — Graph

°F

Augusta Temperature Yesterday

Maximum temperature yesterday: 69 °F (at 12:04 am)
Minimum temperature yesterday: 59 °F (at 11:53 pm)
Average temperature yesterday: 65 °F

High & Low Weather Summary for the Past Weeks

 TemperatureHumidityPressure
High93 °F (Jun 20, 1:53 pm)100% (Jun 21, 11:09 pm)30.04 "Hg (Jun 21, 11:09 pm)
Low58 °F (Jun 26, 3:53 am)29% (Jun 25, 12:53 pm)29.67 "Hg (Jun 24, 4:53 pm)
Average68 °F86%29.87 "Hg
* Reported Jun 19 7:53 pm — Jul 4 7:53 pm, Augusta. Weather by CustomWeather, © 2020

Note: Actual official high and low records may vary slightly from our data, if they occured in-between our weather recording intervals... More about our weather records

Augusta Weather History for the Previous 24 Hours

Scroll right to see more
 ConditionsComfort  
Time TempWeatherWind HumidityBarometerVisibility
7:53 pm
Sat, Jul 4
63 °FLow clouds.5 mph90%29.93 "Hg10 mi
7:32 pm64 °FPartly sunny.9 mph87%29.93 "Hg10 mi
6:53 pm67 °FSunny.9 mph81%29.92 "Hg10 mi
5:53 pm72 °FSunny.12 mph71%29.89 "Hg10 mi
4:53 pm74 °FSunny.9 mph69%29.88 "Hg10 mi
3:53 pm76 °FSunny.10 mph64%29.89 "Hg10 mi
2:53 pm76 °FSunny.12 mph64%29.90 "Hg10 mi
1:53 pm75 °FSunny.10 mph66%29.90 "Hg10 mi
12:53 pm73 °FSunny.8 mph71%29.93 "Hg10 mi
11:53 am72 °FScattered clouds.8 mph71%29.93 "Hg10 mi
10:53 am69 °FPassing clouds.No wind76%29.94 "Hg10 mi
10:38 am68 °FScattered clouds.3 mph78%29.94 "Hg10 mi
10:06 am66 °FOvercast.3 mph84%29.94 "Hg10 mi
9:17 am60 °FLow clouds.No wind100%29.94 "Hg10 mi
8:53 am60 °FLow clouds.3 mph100%29.94 "Hg10 mi
8:09 am59 °FFog.No wind100%29.94 "Hg3 mi
8:02 am59 °FFog.3 mph100%29.94 "Hg1 mi
7:53 am58 °FFog.No wind100%29.94 "Hg0 mi
6:53 am59 °FFog.No wind100%29.93 "Hg0 mi
6:17 am59 °FFog.3 mph100%29.93 "Hg0 mi
6:13 am59 °FFog.3 mph100%29.93 "Hg1 mi
5:53 am59 °FFog.No wind100%29.93 "Hg5 mi
5:36 am59 °FLow clouds.No wind100%29.94 "Hg8 mi
5:05 am59 °FMostly cloudy.No wind100%29.94 "Hg10 mi
4:53 am59 °FLow clouds.No wind96%29.93 "Hg10 mi
4:28 am59 °FMostly cloudy.No wind100%29.93 "Hg9 mi
4:10 am60 °FMostly cloudy.No wind96%29.93 "Hg9 mi
3:53 am60 °FOvercast.No wind96%29.92 "Hg10 mi
2:53 am59 °FOvercast.No wind100%29.94 "Hg10 mi
1:53 am59 °FLow clouds.No wind96%29.94 "Hg10 mi
1:13 am58 °FPassing clouds.No wind100%29.95 "Hg7 mi
12:53 am58 °FPassing clouds.No wind100%29.95 "Hg10 mi
11:53 pm
Fri, Jul 3
59 °FClear.3 mph96%29.96 "Hg10 mi
10:53 pm60 °FClear.No wind96%29.96 "Hg10 mi
Weather by CustomWeather, © 2020

See weather overview